When you browse on this site, cookies collect data to enhance your experience and personalize the content and advertising you see.
Visit our Privacy Policy to learn more. By continuing to use the site, you agree to this use of cookies and data.
EN

Hourly Weather Aliaga

Today, 11 August, Tuesday

Time Temperature Precipitation Wind Pressure Humidity
00:00 +20°C° 0 mm 3 mps 659 mmHg 49%
01:00 +20°C° 0.1 mm 3 mps 658 mmHg 48%
02:00 +20°C° 0.1 mm 3 mps 658 mmHg 47%
03:00 +19°C° 0.1 mm 3 mps 658 mmHg 46%
04:00 +20°C° 0.1 mm 2 mps 658 mmHg 46%
05:00 +20°C° 0.1 mm 2 mps 658 mmHg 46%
06:00 +20°C° 0.1 mm 2 mps 659 mmHg 45%
07:00 +23°C° 0 mm 2 mps 659 mmHg 40%
08:00 +25°C° 0 mm 3 mps 660 mmHg 35%
09:00 +27°C° 0 mm 3 mps 660 mmHg 29%
10:00 +28°C° 0 mm 4 mps 661 mmHg 28%
11:00 +29°C° 0 mm 6 mps 661 mmHg 27%
12:00 +29°C° 0 mm 7 mps 661 mmHg 26%
13:00 +29°C° 0 mm 7 mps 661 mmHg 26%
14:00 +29°C° 0 mm 7 mps 661 mmHg 27%
15:00 +29°C° 0 mm 7 mps 660 mmHg 27%
16:00 +28°C° 0 mm 6 mps 660 mmHg 28%
17:00 +28°C° 0 mm 6 mps 660 mmHg 29%
18:00 +27°C° 0 mm 5 mps 660 mmHg 30%
19:00 +25°C° 0 mm 5 mps 659 mmHg 35%
20:00 +22°C° 0 mm 5 mps 659 mmHg 40%
21:00 +21°C° 0 mm 5 mps 659 mmHg 46%
22:00 +20°C° 0.1 mm 5 mps 659 mmHg 48%
23:00 +20°C° 0.1 mm 5 mps 658 mmHg 49%

Tomorrow, 12 August, Wednesday

Time Temperature Precipitation Wind Pressure Humidity
00:00 +19°C° 0.1 mm 4 mps 658 mmHg 51%
01:00 +19°C° 0.2 mm 4 mps 658 mmHg 56%
02:00 +18°C° 0.2 mm 3 mps 658 mmHg 62%
03:00 +17°C° 0.2 mm 2 mps 657 mmHg 67%
04:00 +17°C° 0.1 mm 2 mps 657 mmHg 66%
05:00 +17°C° 0.1 mm 2 mps 657 mmHg 65%
06:00 +18°C° 0.1 mm 1 mps 657 mmHg 64%
07:00 +19°C° 0 mm 2 mps 658 mmHg 56%
08:00 +21°C° 0 mm 2 mps 658 mmHg 49%
09:00 +25°C° 0 mm 3 mps 659 mmHg 42%
10:00 +26°C° 0 mm 4 mps 659 mmHg 36%
11:00 +27°C° 0 mm 5 mps 660 mmHg 30%
12:00 +29°C° 0 mm 6 mps 660 mmHg 25%
13:00 +29°C° 0 mm 7 mps 660 mmHg 25%
14:00 +29°C° 0 mm 7 mps 659 mmHg 26%
15:00 +28°C° 0 mm 8 mps 659 mmHg 26%
16:00 +28°C° 0 mm 7 mps 659 mmHg 29%
17:00 +27°C° 0 mm 6 mps 659 mmHg 32%
18:00 +26°C° 0 mm 5 mps 658 mmHg 34%
19:00 +23°C° 0 mm 4 mps 658 mmHg 38%
20:00 +22°C° 0 mm 3 mps 658 mmHg 42%
21:00 +20°C° 0 mm 2 mps 658 mmHg 46%
22:00 +19°C° 0 mm 2 mps 658 mmHg 48%
23:00 +20°C° 0 mm 1 mps 658 mmHg 50%

Day after tomorrow, 13 August, Thursday

Time Temperature Precipitation Wind Pressure Humidity
00:00 +19°C° 0 mm 1 mps 658 mmHg 52%
01:00 +19°C° 0 mm 1 mps 658 mmHg 54%
02:00 +18°C° 0 mm 1 mps 657 mmHg 56%
03:00 +15°C° 0 mm 0 mps 657 mmHg 58%
04:00 +15°C° 0 mm 0 mps 657 mmHg 59%
05:00 +16°C° 0 mm 0 mps 658 mmHg 60%
06:00 +16°C° 0 mm 0 mps 658 mmHg 61%
07:00 +18°C° 0 mm 0 mps 659 mmHg 54%
08:00 +22°C° 0 mm 1 mps 659 mmHg 46%
09:00 +24°C° 0 mm 1 mps 660 mmHg 39%
10:00 +25°C° 0 mm 1 mps 660 mmHg 35%
11:00 +26°C° 0 mm 2 mps 660 mmHg 31%
12:00 +27°C° 0 mm 2 mps 660 mmHg 26%
13:00 +28°C° 0 mm 3 mps 660 mmHg 25%
14:00 +29°C° 0 mm 3 mps 660 mmHg 24%
15:00 +29°C° 0 mm 3 mps 660 mmHg 23%
16:00 +28°C° 0 mm 4 mps 660 mmHg 29%
17:00 +27°C° 0 mm 4 mps 659 mmHg 36%
18:00 +26°C° 0 mm 5 mps 659 mmHg 42%
19:00 +23°C° 0 mm 4 mps 659 mmHg 51%
20:00 +22°C° 0 mm 3 mps 659 mmHg 59%
21:00 +20°C° 0 mm 2 mps 659 mmHg 68%
22:00 +20°C° 0 mm 2 mps 659 mmHg 69%
23:00 +19°C° 0 mm 2 mps 659 mmHg 70%

14 August, Friday

Time Temperature Precipitation Wind Pressure Humidity
00:00 +19°C° 0 mm 3 mps 659 mmHg 70%
01:00 +19°C° 0 mm 2 mps 659 mmHg 67%
02:00 +18°C° 0 mm 2 mps 658 mmHg 64%
03:00 +18°C° 0 mm 2 mps 658 mmHg 61%
04:00 +19°C° 0 mm 1 mps 658 mmHg 62%
05:00 +19°C° 0 mm 1 mps 658 mmHg 62%
06:00 +19°C° 0 mm 1 mps 658 mmHg 63%
07:00 +21°C° 0 mm 1 mps 659 mmHg 53%
08:00 +23°C° 0 mm 2 mps 660 mmHg 43%
09:00 +26°C° 0 mm 2 mps 660 mmHg 34%
10:00 +27°C° 0 mm 3 mps 660 mmHg 30%
11:00 +28°C° 0 mm 3 mps 660 mmHg 27%
12:00 +29°C° 0 mm 4 mps 660 mmHg 24%
13:00 +30°C° 0 mm 4 mps 660 mmHg 23%
14:00 +30°C° 0 mm 5 mps 660 mmHg 22%
15:00 +32°C° 0 mm 6 mps 660 mmHg 22%
16:00 +30°C° 0 mm 5 mps 659 mmHg 24%
17:00 +29°C° 0 mm 5 mps 659 mmHg 26%
18:00 +28°C° 0 mm 4 mps 659 mmHg 28%
19:00 +26°C° 0 mm 3 mps 659 mmHg 37%
20:00 +24°C° 0 mm 3 mps 658 mmHg 46%
21:00 +21°C° 0 mm 3 mps 658 mmHg 54%
22:00 +21°C° 0 mm 3 mps 658 mmHg 55%
23:00 +20°C° 0 mm 3 mps 658 mmHg 55%

15 August, Saturday

Time Temperature Precipitation Wind Pressure Humidity
00:00 +20°C° 0 mm 3 mps 658 mmHg 55%
01:00 +19°C° 0 mm 2 mps 658 mmHg 55%
02:00 +19°C° 0 mm 2 mps 657 mmHg 55%
03:00 +18°C° 0 mm 2 mps 657 mmHg 55%
04:00 +18°C° 0 mm 2 mps 657 mmHg 55%
05:00 +19°C° 0 mm 1 mps 657 mmHg 55%
06:00 +19°C° 0 mm 1 mps 657 mmHg 55%
07:00 +22°C° 0 mm 1 mps 658 mmHg 46%
08:00 +24°C° 0 mm 2 mps 658 mmHg 37%
09:00 +27°C° 0 mm 2 mps 659 mmHg 28%
10:00 +28°C° 0 mm 3 mps 659 mmHg 25%
11:00 +29°C° 0 mm 4 mps 659 mmHg 22%
12:00 +30°C° 0 mm 4 mps 660 mmHg 19%
13:00 +32°C° 0 mm 5 mps 659 mmHg 17%
14:00 +32°C° 0 mm 6 mps 659 mmHg 16%
15:00 +33°C° 0 mm 8 mps 659 mmHg 15%
16:00 +32°C° 0 mm 7 mps 658 mmHg 18%
17:00 +30°C° 0 mm 6 mps 658 mmHg 20%
18:00 +28°C° 0 mm 5 mps 657 mmHg 23%
19:00 +26°C° 0 mm 4 mps 657 mmHg 24%
20:00 +23°C° 0 mm 4 mps 657 mmHg 26%
21:00 +21°C° 0 mm 3 mps 657 mmHg 27%
22:00 +21°C° 0 mm 3 mps 657 mmHg 28%
23:00 +20°C° 0 mm 2 mps 657 mmHg 29%

16 August, Sunday

Time Temperature Precipitation Wind Pressure Humidity
00:00 +19°C° 0 mm 2 mps 656 mmHg 30%
01:00 +19°C° 0 mm 2 mps 656 mmHg 31%
02:00 +19°C° 0 mm 1 mps 656 mmHg 32%
03:00 +18°C° 0 mm 1 mps 655 mmHg 33%
04:00 +18°C° 0 mm 1 mps 655 mmHg 35%
05:00 +18°C° 0 mm 1 mps 656 mmHg 38%
06:00 +19°C° 0 mm 1 mps 656 mmHg 40%
07:00 +20°C° 0 mm 2 mps 656 mmHg 35%
08:00 +22°C° 0 mm 3 mps 657 mmHg 29%
09:00 +25°C° 0 mm 4 mps 658 mmHg 24%
10:00 +26°C° 0 mm 4 mps 658 mmHg 22%
11:00 +27°C° 0 mm 4 mps 658 mmHg 20%
12:00 +29°C° 0 mm 5 mps 658 mmHg 17%
13:00 +29°C° 0 mm 5 mps 658 mmHg 18%
14:00 +29°C° 0 mm 5 mps 658 mmHg 19%
15:00 +29°C° 0 mm 5 mps 658 mmHg 19%
16:00 +28°C° 0 mm 4 mps 657 mmHg 22%
17:00 +27°C° 0 mm 4 mps 657 mmHg 24%
18:00 +26°C° 0 mm 3 mps 657 mmHg 26%
19:00 +24°C° 0 mm 3 mps 657 mmHg 36%
20:00 +20°C° 0 mm 3 mps 657 mmHg 46%
21:00 +18°C° 0 mm 3 mps 657 mmHg 56%
22:00 +17°C° 0 mm 2 mps 657 mmHg 61%
23:00 +16°C° 0 mm 2 mps 657 mmHg 65%
Show more